Location: Lussas
(44.6119°N, 4.4726°E)
Time: 05:20:30
(UTC+00:00)

CRYOSAT 2 - Pass Details

Date: 26 November 2020
Orbit: 715 x 723 km, 92.0° (Epoch: 18 January)

Event Time Altitude Azimuth Distance (km) Brightness Sun altitude
Rises 05:17:25 0° 187° (S) 3,106 7.7 -16.7°
Reaches altitude 10° 05:19:45 10° 192° (SSW) 2,192 6.9 -16.3°
Maximum altitude 05:24:28 52° 269° (W) 896 4.5 -15.5°
Drops below altitude 10° 05:29:14 10° 346° (NNW) 2,212 6.6 -14.6°
Sets 05:31:36 0° 351° (N) 3,138 7.4 -14.2°
